[keps] orb08339.amsat

Ray Hoad r.hoad at att.net
Thu Dec 4 16:47:52 PST 2008


SB KEPS @ AMSAT  $ORB08339.O
Orbital Elements  08339.OSCAR

HR AMSAT ORBITAL ELEMENTS FOR OSCAR SATELLITES
FROM WA5QGD FORT WORTH,TX December 4, 2008
Send Subscribe/unsubscribe to KEPS at 
http://www.amsat.org/mailman/listinfo/keps
BID: ORB08339.O
TO ALL RADIO AMATEURS BT

Satellite: PO-63
Catalog number: 29712
Epoch time:      08339.70288781
Element set:      28
Inclination:      097.8559 deg
RA of node:       034.5146 deg
Eccentricity:    0.0013987
Arg of perigee:   183.6012 deg
Mean anomaly:     176.5087 deg
Mean motion:   14.80359985 rev/day
Decay rate:       5.83e-06 rev/day^2
Epoch rev:           10269
Checksum:              349

Satellite: VO-52
Catalog number: 28650
Epoch time:      08338.39264154
Element set:      95
Inclination:      097.7703 deg
RA of node:       040.1741 deg
Eccentricity:    0.0026373
Arg of perigee:   310.6228 deg
Mean anomaly:     049.2703 deg
Mean motion:   14.81526321 rev/day
Decay rate:      -2.13e-06 rev/day^2
Epoch rev:           19365
Checksum:              290

Satellite: AO-40
Catalog number: 26609
Epoch time:      08338.30552782
Element set:     162
Inclination:      008.2080 deg
RA of node:       045.5674 deg
Eccentricity:    0.7938374
Arg of perigee:   151.2607 deg
Mean anomaly:     297.1135 deg
Mean motion:   01.25587123 rev/day
Decay rate:      -1.16e-06 rev/day^2
Epoch rev:            3716
Checksum:              300

Satellite: SO-33
Catalog number: 25509
Epoch time:      08339.67248512
Element set:     338
Inclination:      031.4304 deg
RA of node:       072.3616 deg
Eccentricity:    0.0354196
Arg of perigee:   077.8019 deg
Mean anomaly:     286.2038 deg
Mean motion:   14.28233192 rev/day
Decay rate:       1.17e-06 rev/day^2
Epoch rev:           52800
Checksum:              297

Satellite: FO-29
Catalog number: 24278
Epoch time:      08339.73080535
Element set:     917
Inclination:      098.5770 deg
RA of node:       233.6109 deg
Eccentricity:    0.0351351
Arg of perigee:   133.9867 deg
Mean anomaly:     229.0816 deg
Mean motion:   13.52940622 rev/day
Decay rate:        3.5e-07 rev/day^2
Epoch rev:           60745
Checksum:              323

Satellite: RS-15
Catalog number: 23439
Epoch time:      08337.88273289
Element set:     163
Inclination:      064.8168 deg
RA of node:       222.2566 deg
Eccentricity:    0.0145726
Arg of perigee:   090.0177 deg
Mean anomaly:     271.7445 deg
Mean motion:   11.27552875 rev/day
Decay rate:       -3.9e-07 rev/day^2
Epoch rev:           57398
Checksum:              341

Satellite: UO-11
Catalog number: 14781
Epoch time:      08339.05669844
Element set:     827
Inclination:      098.1342 deg
RA of node:       015.4499 deg
Eccentricity:    0.0008077
Arg of perigee:   245.7679 deg
Mean anomaly:     114.2673 deg
Mean motion:   14.79679764 rev/day
Decay rate:      -1.30e-06 rev/day^2
Epoch rev:           32897
Checksum:              354

Satellite: AO-10
Catalog number: 14129
Epoch time:      08334.24004812
Element set:     595
Inclination:      026.0359 deg
RA of node:       183.6184 deg
Eccentricity:    0.5958472
Arg of perigee:   177.3883 deg
Mean anomaly:     188.3617 deg
Mean motion:   02.05869792 rev/day
Decay rate:       -6.9e-07 rev/day^2
Epoch rev:           19150
Checksum:              334

Satellite: AO-07
Catalog number: 07530
Epoch time:      08339.12169863
Element set:     343
Inclination:      101.4483 deg
RA of node:       004.8182 deg
Eccentricity:    0.0011693
Arg of perigee:   289.9596 deg
Mean anomaly:     070.0223 deg
Mean motion:   12.53574773 rev/day
Decay rate:       -2.7e-07 rev/day^2
Epoch rev:           55827
Checksum:              309

/EX
SB KEPS @ AMSAT  $ORB08339.D
Orbital Elements  08339.MICROS

HR AMSAT ORBITAL ELEMENTS FOR THE MICROSATS
FROM WA5QGD FORT WORTH,TX December 4, 2008
Send Subscribe/unsubscribe to KEPS at 
http://www.amsat.org/mailman/listinfo/keps
BID: ORB08339.D
TO ALL RADIO AMATEURS BT

Satellite: CO-65
Catalog number: 32785
Epoch time:      08339.87355323
Element set:     228
Inclination:      097.9729 deg
RA of node:       039.1775 deg
Eccentricity:    0.0014013
Arg of perigee:   305.5015 deg
Mean anomaly:     054.4873 deg
Mean motion:   14.81422166 rev/day
Decay rate:        5.8e-07 rev/day^2
Epoch rev:            3267
Checksum:              318

Satellite: CP4
Catalog number: 31132
Epoch time:      08339.82939631
Element set:     475
Inclination:      098.0228 deg
RA of node:       038.8728 deg
Eccentricity:    0.0086472
Arg of perigee:   157.7078 deg
Mean anomaly:     202.7918 deg
Mean motion:   14.55163903 rev/day
Decay rate:        5.9e-07 rev/day^2
Epoch rev:            8676
Checksum:              338

Satellite: CP3
Catalog number: 31128
Epoch time:      08339.68692001
Element set:     498
Inclination:      098.0192 deg
RA of node:       035.7250 deg
Eccentricity:    0.0103263
Arg of perigee:   166.9288 deg
Mean anomaly:     193.4643 deg
Mean motion:   14.51998430 rev/day
Decay rate:       -4.6e-07 rev/day^2
Epoch rev:            8667
Checksum:              322

Satellite: CO-56
Catalog number: 28941
Epoch time:      08339.83110678
Element set:     607
Inclination:      098.1232 deg
RA of node:       115.2164 deg
Eccentricity:    0.0135304
Arg of perigee:   137.0983 deg
Mean anomaly:     224.0920 deg
Mean motion:   15.66729395 rev/day
Decay rate:     4.2156e-04 rev/day^2
Epoch rev:           15666
Checksum:              319

Satellite: AO-51
Catalog number: 28375
Epoch time:      08339.49196482
Element set:     259
Inclination:      098.0594 deg
RA of node:       354.3923 deg
Eccentricity:    0.0084808
Arg of perigee:   356.7577 deg
Mean anomaly:     003.3054 deg
Mean motion:   14.40626600 rev/day
Decay rate:        1.4e-07 rev/day^2
Epoch rev:           23292
Checksum:              323

Satellite: CO-57
Catalog number: 27848
Epoch time:      08338.56659262
Element set:     406
Inclination:      098.7160 deg
RA of node:       343.5578 deg
Eccentricity:    0.0010005
Arg of perigee:   356.0741 deg
Mean anomaly:     004.0368 deg
Mean motion:   14.20416368 rev/day
Decay rate:        3.4e-07 rev/day^2
Epoch rev:           28145
Checksum:              306

Satellite: CO-55
Catalog number: 27844
Epoch time:      08339.03864183
Element set:     456
Inclination:      098.7155 deg
RA of node:       344.9528 deg
Eccentricity:    0.0010006
Arg of perigee:   352.2865 deg
Mean anomaly:     007.8153 deg
Mean motion:   14.20610483 rev/day
Decay rate:        6.9e-07 rev/day^2
Epoch rev:           28155
Checksum:              314

Satellite: SO-50
Catalog number: 27607
Epoch time:      08339.05994077
Element set:     757
Inclination:      064.5591 deg
RA of node:       257.7205 deg
Eccentricity:    0.0083706
Arg of perigee:   246.3755 deg
Mean anomaly:     112.8537 deg
Mean motion:   14.71399355 rev/day
Decay rate:        3.2e-07 rev/day^2
Epoch rev:           31996
Checksum:              342

Satellite: NO-44
Catalog number: 26931
Epoch time:      08339.15776423
Element set:      42
Inclination:      067.0511 deg
RA of node:       206.7846 deg
Eccentricity:    0.0006430
Arg of perigee:   255.9841 deg
Mean anomaly:     104.0542 deg
Mean motion:   14.29541108 rev/day
Decay rate:       1.14e-06 rev/day^2
Epoch rev:           37470
Checksum:              281

Satellite: GO-32
Catalog number: 25397
Epoch time:      08339.11262101
Element set:     763
Inclination:      098.3465 deg
RA of node:       005.7245 deg
Eccentricity:    0.0002211
Arg of perigee:   097.7416 deg
Mean anomaly:     262.4024 deg
Mean motion:   14.23152451 rev/day
Decay rate:        9.5e-07 rev/day^2
Epoch rev:           54038
Checksum:              275

Satellite: IO-26
Catalog number: 22826
Epoch time:      08339.48230719
Element set:     837
Inclination:      098.4029 deg
RA of node:       294.1606 deg
Eccentricity:    0.0009695
Arg of perigee:   111.4576 deg
Mean anomaly:     248.7650 deg
Mean motion:   14.29503183 rev/day
Decay rate:       -1.0e-07 rev/day^2
Epoch rev:           79219
Checksum:              326

Satellite: AO-27
Catalog number: 22825
Epoch time:      08339.66796267
Element set:     121
Inclination:      098.4119 deg
RA of node:       293.5059 deg
Eccentricity:    0.0009099
Arg of perigee:   114.7703 deg
Mean anomaly:     245.4388 deg
Mean motion:   14.29253134 rev/day
Decay rate:        5.0e-07 rev/day^2
Epoch rev:           79212
Checksum:              324

Satellite: LO-19
Catalog number: 20442
Epoch time:      08338.48502160
Element set:     402
Inclination:      098.2191 deg
RA of node:       318.0756 deg
Eccentricity:    0.0012574
Arg of perigee:   033.8891 deg
Mean anomaly:     326.3107 deg
Mean motion:   14.32047189 rev/day
Decay rate:        2.0e-07 rev/day^2
Epoch rev:           98530
Checksum:              286

Satellite: AO-16
Catalog number: 20439
Epoch time:      08339.44407590
Element set:     478
Inclination:      098.2530 deg
RA of node:       310.9986 deg
Eccentricity:    0.0011602
Arg of perigee:   033.9259 deg
Mean anomaly:     326.2672 deg
Mean motion:   14.31809764 rev/day
Decay rate:       -1.0e-07 rev/day^2
Epoch rev:           98528
Checksum:              320

/EX
SB KEPS @ AMSAT  $ORB08339.W
Orbital Elements  08339.WEATHER

HR AMSAT ORBITAL ELEMENTS FOR WEATHER SATELLITES
FROM WA5QGD FORT WORTH,TX December 4, 2008
Send Subscribe/unsubscribe to KEPS at 
http://www.amsat.org/mailman/listinfo/keps
BID: ORB08339.W
TO ALL RADIO AMATEURS BT

Satellite: NOAA-18
Catalog number: 28654
Epoch time:      08339.50006938
Element set:     688
Inclination:      098.8878 deg
RA of node:       278.4684 deg
Eccentricity:    0.0014071
Arg of perigee:   189.7174 deg
Mean anomaly:     170.3716 deg
Mean motion:   14.11212567 rev/day
Decay rate:      -2.25e-06 rev/day^2
Epoch rev:           18249
Checksum:              346

